• în Republica Moldova
  • Lista ţărilor
  • Pe 7 zile
  • Temperatura apei
  • Hartă satelitară
  • Meteo pe hartă
  • Widget-uri
  • user-avatar
    Intrare

    Meteo pe oră la Kitzbuhel

    Astăzi, 10 Decembrie, Luni

    Timp Temperatura Precipitaţii Vânt Presiune Umiditate
    00:00 +1°C° 1.8 mm 3 m/s 671 mmHg 94%
    01:00 +1°C° 0 mm 3 m/s 672 mmHg 94%
    02:00 0°C° 1.5 mm 3 m/s 672 mmHg 94%
    03:00 0°C° 1.5 mm 3 m/s 672 mmHg 93%
    04:00 -1°C° 1.5 mm 4 m/s 673 mmHg 93%
    05:00 -1°C° 1.2 mm 4 m/s 673 mmHg 92%
    06:00 -2°C° 1.2 mm 4 m/s 674 mmHg 92%
    07:00 -2°C° 0 mm 4 m/s 674 mmHg 93%
    08:00 -2°C° 1.2 mm 4 m/s 674 mmHg 92%
    09:00 -2°C° 1.2 mm 4 m/s 675 mmHg 91%
    10:00 -2°C° 1.2 mm 4 m/s 675 mmHg 91%
    11:00 -2°C° 1.1 mm 4 m/s 675 mmHg 91%
    12:00 -2°C° 1.1 mm 4 m/s 675 mmHg 91%
    13:00 -2°C° 0 mm 3 m/s 676 mmHg 92%
    14:00 -2°C° 0.8 mm 3 m/s 675 mmHg 92%
    15:00 -2°C° 0.8 mm 3 m/s 675 mmHg 92%
    16:00 -2°C° 0.8 mm 3 m/s 675 mmHg 92%
    17:00 -2°C° 0.9 mm 3 m/s 676 mmHg 93%
    18:00 -2°C° 0.9 mm 3 m/s 676 mmHg 94%
    19:00 -4°C° 0.9 mm 3 m/s 676 mmHg 94%
    20:00 -4°C° 1.2 mm 3 m/s 676 mmHg 94%
    21:00 -4°C° 1.2 mm 3 m/s 676 mmHg 95%
    22:00 -4°C° 1.2 mm 3 m/s 676 mmHg 95%
    23:00 -4°C° 1.3 mm 3 m/s 676 mmHg 95%

    Mâine, 11 Decembrie, Marţi

    Timp Temperatura Precipitaţii Vânt Presiune Umiditate
    00:00 -4°C° 1.3 mm 3 m/s 676 mmHg 96%
    01:00 -4°C° 1.3 mm 3 m/s 676 mmHg 96%
    02:00 -5°C° 0.4 mm 3 m/s 676 mmHg 95%
    03:00 -5°C° 0.4 mm 3 m/s 676 mmHg 95%
    04:00 -5°C° 0.4 mm 3 m/s 676 mmHg 94%
    05:00 -5°C° 0.6 mm 3 m/s 676 mmHg 94%
    06:00 -6°C° 0.6 mm 3 m/s 676 mmHg 94%
    07:00 -6°C° 0.6 mm 3 m/s 676 mmHg 94%
    08:00 -6°C° 0.5 mm 3 m/s 676 mmHg 94%
    09:00 -5°C° 0.5 mm 3 m/s 677 mmHg 93%
    10:00 -5°C° 0.5 mm 3 m/s 677 mmHg 92%
    11:00 -5°C° 0.4 mm 3 m/s 677 mmHg 91%
    12:00 -5°C° 0.4 mm 3 m/s 677 mmHg 90%
    13:00 -4°C° 0.4 mm 3 m/s 677 mmHg 89%
    14:00 -5°C° 0.3 mm 3 m/s 677 mmHg 90%
    15:00 -5°C° 0.3 mm 3 m/s 677 mmHg 91%
    16:00 -4°C° 0.3 mm 2 m/s 677 mmHg 92%
    17:00 -5°C° 0.2 mm 2 m/s 677 mmHg 92%
    18:00 -5°C° 0.2 mm 2 m/s 677 mmHg 92%
    19:00 -6°C° 0.2 mm 2 m/s 677 mmHg 93%
    20:00 -6°C° 0.1 mm 2 m/s 677 mmHg 92%
    21:00 -7°C° 0.1 mm 2 m/s 677 mmHg 92%
    22:00 -7°C° 0.1 mm 2 m/s 677 mmHg 91%
    23:00 -8°C° 0.1 mm 2 m/s 677 mmHg 91%

    Poimâine, 12 Decembrie, Miercuri

    Timp Temperatura Precipitaţii Vânt Presiune Umiditate
    00:00 -8°C° 0.1 mm 2 m/s 677 mmHg 90%
    01:00 -8°C° 0.1 mm 2 m/s 677 mmHg 90%
    02:00 -9°C° 0.1 mm 2 m/s 677 mmHg 89%
    03:00 -9°C° 0.1 mm 2 m/s 677 mmHg 89%
    04:00 -9°C° 0.1 mm 2 m/s 676 mmHg 89%
    05:00 -9°C° 0.1 mm 2 m/s 677 mmHg 89%
    06:00 -9°C° 0.1 mm 2 m/s 677 mmHg 89%
    07:00 -10°C° 0.1 mm 2 m/s 677 mmHg 88%
    08:00 -8°C° 0.1 mm 2 m/s 677 mmHg 88%
    09:00 -7°C° 0.1 mm 2 m/s 677 mmHg 88%
    10:00 -6°C° 0.1 mm 2 m/s 677 mmHg 87%
    11:00 -3°C° 0.1 mm 1 m/s 677 mmHg 86%
    12:00 -2°C° 0.1 mm 1 m/s 677 mmHg 84%
    13:00 -1°C° 0.1 mm 1 m/s 676 mmHg 83%
    14:00 -2°C° 0 mm 1 m/s 676 mmHg 86%
    15:00 -3°C° 0 mm 1 m/s 676 mmHg 90%
    16:00 -5°C° 0 mm 0 m/s 675 mmHg 94%
    17:00 -6°C° 0 mm 1 m/s 675 mmHg 93%
    18:00 -7°C° 0 mm 1 m/s 675 mmHg 93%
    19:00 -7°C° 0 mm 1 m/s 675 mmHg 93%
    20:00 -8°C° 0 mm 1 m/s 675 mmHg 92%
    21:00 -8°C° 0 mm 1 m/s 675 mmHg 90%
    22:00 -9°C° 0 mm 1 m/s 675 mmHg 89%
    23:00 -9°C° 0 mm 1 m/s 675 mmHg 88%

    13 Decembrie, Joi

    Timp Temperatura Precipitaţii Vânt Presiune Umiditate
    00:00 -10°C° 0 mm 1 m/s 674 mmHg 87%
    01:00 -10°C° 0 mm 1 m/s 674 mmHg 86%
    02:00 -10°C° 0 mm 1 m/s 674 mmHg 86%
    03:00 -11°C° 0 mm 1 m/s 674 mmHg 86%
    04:00 -11°C° 0 mm 1 m/s 673 mmHg 85%
    05:00 -11°C° 0 mm 1 m/s 673 mmHg 85%
    06:00 -11°C° 0 mm 1 m/s 673 mmHg 85%
    07:00 -11°C° 0 mm 1 m/s 673 mmHg 85%
    08:00 -10°C° 0 mm 1 m/s 673 mmHg 85%
    09:00 -8°C° 0 mm 1 m/s 673 mmHg 84%
    10:00 -7°C° 0 mm 1 m/s 673 mmHg 84%
    11:00 -4°C° 0 mm 1 m/s 673 mmHg 83%
    12:00 -3°C° 0 mm 1 m/s 673 mmHg 81%
    13:00 -1°C° 0 mm 1 m/s 673 mmHg 80%
    14:00 -3°C° 0 mm 1 m/s 673 mmHg 83%
    15:00 -4°C° 0 mm 1 m/s 673 mmHg 87%
    16:00 -6°C° 0 mm 1 m/s 672 mmHg 90%
    17:00 -7°C° 0 mm 1 m/s 673 mmHg 89%
    18:00 -8°C° 0 mm 1 m/s 673 mmHg 88%
    19:00 -9°C° 0 mm 1 m/s 673 mmHg 86%
    20:00 -9°C° 0 mm 1 m/s 673 mmHg 83%
    21:00 -10°C° 0 mm 1 m/s 673 mmHg 80%
    22:00 -10°C° 0 mm 1 m/s 674 mmHg 77%
    23:00 -10°C° 0 mm 1 m/s 674 mmHg 76%

    14 Decembrie, Vineri

    Timp Temperatura Precipitaţii Vânt Presiune Umiditate
    00:00 -10°C° 0 mm 1 m/s 674 mmHg 74%
    01:00 -10°C° 0 mm 1 m/s 674 mmHg 72%
    02:00 -10°C° 0 mm 1 m/s 674 mmHg 71%
    03:00 -10°C° 0 mm 1 m/s 674 mmHg 69%
    04:00 -10°C° 0 mm 1 m/s 674 mmHg 68%
    05:00 -10°C° 0 mm 1 m/s 674 mmHg 67%
    06:00 -10°C° 0 mm 1 m/s 674 mmHg 67%
    07:00 -10°C° 0 mm 1 m/s 674 mmHg 66%
    08:00 -8°C° 0 mm 1 m/s 675 mmHg 69%
    09:00 -7°C° 0 mm 1 m/s 675 mmHg 71%
    10:00 -4°C° 0 mm 1 m/s 676 mmHg 73%
    11:00 -3°C° 0 mm 1 m/s 676 mmHg 74%
    12:00 -1°C° 0 mm 1 m/s 676 mmHg 74%
    13:00 0°C° 0 mm 1 m/s 676 mmHg 74%
    14:00 -1°C° 0 mm 1 m/s 676 mmHg 78%
    15:00 -4°C° 0 mm 0 m/s 676 mmHg 81%
    16:00 -5°C° 0 mm 0 m/s 676 mmHg 84%
    17:00 -4°C° 0 mm 1 m/s 676 mmHg 82%
    18:00 -6°C° 0 mm 1 m/s 677 mmHg 80%
    19:00 -6°C° 0 mm 1 m/s 677 mmHg 77%
    20:00 -6°C° 0 mm 1 m/s 678 mmHg 76%
    21:00 -6°C° 0 mm 1 m/s 678 mmHg 74%
    22:00 -6°C° 0 mm 1 m/s 679 mmHg 72%
    23:00 -6°C° 0 mm 1 m/s 679 mmHg 71%

    15 Decembrie, Sâmbătă

    Timp Temperatura Precipitaţii Vânt Presiune Umiditate
    00:00 -6°C° 0 mm 1 m/s 679 mmHg 71%
    01:00 -6°C° 0 mm 1 m/s 679 mmHg 70%
    02:00 -6°C° 0 mm 1 m/s 679 mmHg 72%
    03:00 -7°C° 0 mm 1 m/s 679 mmHg 75%
    04:00 -7°C° 0 mm 1 m/s 679 mmHg 77%
    05:00 -7°C° 0 mm 1 m/s 679 mmHg 79%
    06:00 -7°C° 0 mm 1 m/s 679 mmHg 82%
    07:00 -7°C° 0 mm 1 m/s 679 mmHg 84%
    08:00 -6°C° 0 mm 1 m/s 680 mmHg 85%
    09:00 -4°C° 0 mm 1 m/s 680 mmHg 86%
    10:00 -2°C° 0 mm 1 m/s 681 mmHg 86%
    11:00 -1°C° 0 mm 1 m/s 681 mmHg 85%
    12:00 0°C° 0 mm 1 m/s 680 mmHg 83%
    13:00 0°C° 0 mm 0 m/s 680 mmHg 81%
    14:00 0°C° 0 mm 1 m/s 680 mmHg 84%
    15:00 -2°C° 0 mm 1 m/s 680 mmHg 88%
    16:00 -3°C° 0 mm 1 m/s 680 mmHg 91%
    17:00 -4°C° 0 mm 1 m/s 680 mmHg 87%
    18:00 -6°C° 0 mm 1 m/s 680 mmHg 84%
    19:00 -6°C° 0 mm 1 m/s 680 mmHg 80%
    20:00 -7°C° 0 mm 1 m/s 680 mmHg 76%
    21:00 -7°C° 0 mm 1 m/s 680 mmHg 72%
    22:00 -8°C° 0 mm 2 m/s 680 mmHg 69%
    23:00 -8°C° 0 mm 2 m/s 680 mmHg 66%
    Arată mai mult